�������l�o���
Date,Time,MP-1(��Sv/h),MP-2(��Sv/h),MP-3(��Sv/h),MP-4(��Sv/h),MP-5(��Sv/h),MP-6(��Sv/h),MP-7(��Sv/h),MP-8(��Sv/h),����,����(m/s),���J
2019/08/25,00:00,0.758,1.070,0.743,1.327,0.967,0.431,0.747,0.704,���k��,3.8,��
2019/08/25,00:10,0.758,1.069,0.741,1.327,0.969,0.430,0.746,0.703,��,3.0,��
2019/08/25,00:20,0.758,1.069,0.741,1.327,0.969,0.430,0.746,0.704,��,2.9,��
2019/08/25,00:30,0.759,1.067,0.742,1.326,0.970,0.429,0.748,0.706,���k��,2.9,��
2019/08/25,00:40,0.759,1.065,0.742,1.328,0.968,0.430,0.747,0.705,��,2.6,��
2019/08/25,00:50,0.760,1.066,0.742,1.324,0.969,0.430,0.748,0.703,��,2.0,��
2019/08/25,01:00,0.760,1.069,0.741,1.326,0.970,0.430,0.746,0.706,���k��,0.6,��
2019/08/25,01:10,0.761,1.069,0.740,1.326,0.968,0.430,0.744,0.704,���k��,2.2,��
2019/08/25,01:20,0.760,1.070,0.742,1.325,0.971,0.428,0.748,0.704,�k��,3.0,��
2019/08/25,01:30,0.760,1.068,0.744,1.328,0.969,0.430,0.747,0.704,�k��,2.5,��
2019/08/25,01:40,0.759,1.067,0.743,1.327,0.968,0.429,0.745,0.704,���k��,3.1,��
2019/08/25,01:50,0.759,1.068,0.743,1.328,0.969,0.429,0.747,0.704,���k��,1.7,��
2019/08/25,02:00,0.759,1.069,0.741,1.328,0.969,0.430,0.746,0.705,��,1.5,��
2019/08/25,02:10,0.760,1.068,0.743,1.328,0.969,0.430,0.747,0.703,��,1.2,��
2019/08/25,02:20,0.758,1.069,0.741,1.327,0.968,0.430,0.745,0.704,��,1.5,��
2019/08/25,02:30,0.759,1.071,0.741,1.327,0.971,0.430,0.746,0.704,���쐼,0.8,��
2019/08/25,02:40,0.758,1.068,0.741,1.326,0.972,0.431,0.748,0.705,���쐼,1.4,��
2019/08/25,02:50,0.760,1.069,0.740,1.327,0.969,0.429,0.748,0.704,�쐼,0.9,�L
2019/08/25,03:00,0.760,1.068,0.742,1.329,0.967,0.429,0.747,0.705,��쐼,0.9,��
2019/08/25,03:10,0.762,1.069,0.742,1.325,0.969,0.428,0.746,0.703,��쓌,1.5,��
2019/08/25,03:20,0.759,1.068,0.744,1.325,0.969,0.430,0.747,0.705,��쓌,3.0,��
2019/08/25,03:30,0.758,1.069,0.742,1.325,0.969,0.430,0.746,0.704,��쓌,5.3,��
2019/08/25,03:40,0.760,1.071,0.742,1.327,0.969,0.430,0.747,0.703,��,6.8,��
2019/08/25,03:50,0.760,1.069,0.744,1.327,0.969,0.431,0.748,0.703,��,6.3,�L
2019/08/25,04:00,0.761,1.071,0.742,1.328,0.972,0.431,0.745,0.705,��,5.3,�L
2019/08/25,04:10,0.760,1.070,0.742,1.326,0.968,0.431,0.746,0.704,��,5.0,�L
2019/08/25,04:20,0.757,1.069,0.740,1.328,0.968,0.430,0.747,0.703,��,4.7,��
2019/08/25,04:30,0.758,1.070,0.742,1.324,0.968,0.431,0.746,0.706,��,3.1,��
2019/08/25,04:40,0.759,1.067,0.742,1.325,0.970,0.429,0.746,0.704,��,3.9,��
2019/08/25,04:50,0.758,1.068,0.740,1.326,0.969,0.430,0.747,0.702,��,3.7,��
2019/08/25,05:00,0.757,1.068,0.743,1.328,0.968,0.431,0.745,0.705,��,3.4,��
2019/08/25,05:10,0.759,1.069,0.742,1.329,0.971,0.430,0.747,0.704,��쐼,3.7,��
2019/08/25,05:20,0.759,1.067,0.741,1.327,0.968,0.430,0.746,0.705,��,2.5,��
2019/08/25,05:30,0.758,1.069,0.741,1.328,0.969,0.432,0.746,0.703,��쐼,2.5,��
2019/08/25,05:40,0.760,1.069,0.741,1.329,0.969,0.429,0.748,0.705,��쐼,2.5,��
2019/08/25,05:50,0.759,1.066,0.741,1.327,0.969,0.431,0.747,0.703,��,2.0,��
2019/08/25,06:00,0.759,1.068,0.742,1.326,0.971,0.430,0.746,0.706,��쓌,1.7,��
2019/08/25,06:10,0.759,1.070,0.742,1.329,0.971,0.431,0.745,0.704,��쓌,2.0,��
2019/08/25,06:20,0.759,1.068,0.740,1.327,0.968,0.429,0.745,0.703,��쓌,1.9,��
2019/08/25,06:30,0.758,1.071,0.741,1.327,0.969,0.430,0.745,0.705,��,1.7,��
2019/08/25,06:40,0.757,1.070,0.742,1.328,0.969,0.431,0.747,0.703,��쐼,1.7,��
2019/08/25,06:50,0.759,1.071,0.741,1.327,0.967,0.431,0.746,0.704,��,2.5,��
2019/08/25,07:00,0.760,1.068,0.739,1.326,0.968,0.430,0.745,0.704,��,2.8,��
2019/08/25,07:10,0.759,1.066,0.740,1.327,0.967,0.431,0.746,0.704,��,2.3,��
2019/08/25,07:20,0.760,1.069,0.741,1.328,0.969,0.431,0.747,0.703,��쓌,2.5,��
2019/08/25,07:30,0.760,1.069,0.740,1.326,0.968,0.430,0.748,0.705,��,2.0,��
2019/08/25,07:40,0.758,1.068,0.741,1.326,0.970,0.431,0.747,0.704,��,2.6,��
2019/08/25,07:50,0.760,1.067,0.742,1.331,0.968,0.430,0.748,0.705,��쓌,1.9,��
2019/08/25,08:00,0.759,1.067,0.742,1.326,0.969,0.431,0.749,0.704,��쓌,2.6,��
2019/08/25,08:10,0.761,1.069,0.741,1.329,0.970,0.431,0.749,0.704,��쓌,3.7,��
2019/08/25,08:20,0.760,1.072,0.742,1.327,0.971,0.431,0.748,0.705,��쓌,3.7,��
2019/08/25,08:30,0.759,1.069,0.741,1.325,0.969,0.431,0.749,0.701,��,3.3,��
2019/08/25,08:40,0.759,1.070,0.741,1.324,0.971,0.431,0.746,0.701,��쓌,2.9,��
2019/08/25,08:50,0.759,1.069,0.743,1.327,0.969,0.432,0.746,0.703,��쓌,3.6,��
2019/08/25,09:00,0.759,1.071,0.740,1.327,0.970,0.432,0.746,0.702,��쓌,3.2,��
2019/08/25,09:10,0.762,1.069,0.738,1.329,0.967,0.430,0.746,0.703,��쓌,3.0,��
2019/08/25,09:20,0.760,1.072,0.741,1.327,0.971,0.430,0.745,0.702,��쓌,4.0,��
2019/08/25,09:30,0.762,1.069,0.740,1.329,0.968,0.431,0.745,0.702,��쓌,3.1,��
2019/08/25,09:40,0.761,1.069,0.742,1.330,0.970,0.430,0.746,0.702,�쓌,3.2,��
2019/08/25,09:50,0.760,1.072,0.741,1.330,0.972,0.432,0.746,0.702,�쓌,2.6,��
2019/08/25,10:00,0.762,1.072,0.741,1.328,0.972,0.431,0.746,0.701,�쓌,3.3,��
2019/08/25,10:10,0.761,1.072,0.740,1.328,0.971,0.430,0.745,0.704,�쓌,4.1,��
2019/08/25,10:20,0.761,1.073,0.742,1.329,0.971,0.431,0.749,0.703,�쓌,4.5,��
2019/08/25,10:30,0.762,1.073,0.742,1.329,0.972,0.432,0.747,0.704,�쓌,4.7,��
2019/08/25,10:40,0.761,1.074,0.743,1.331,0.973,0.430,0.747,0.703,�쓌,4.7,��
2019/08/25,10:50,0.760,1.073,0.744,1.328,0.974,0.429,0.749,0.702,�쓌,3.7,��
2019/08/25,11:00,0.764,1.071,0.744,1.330,0.973,0.432,0.748,0.702,��쓌,4.1,��
2019/08/25,11:10,0.762,1.075,0.744,1.328,0.972,0.431,0.746,0.704,��쓌,4.7,��
2019/08/25,11:20,0.761,1.074,0.745,1.330,0.975,0.431,0.747,0.704,�쓌,4.8,��
2019/08/25,11:30,0.762,1.076,0.743,1.326,0.974,0.432,0.749,0.704,��쓌,5.7,��
2019/08/25,11:40,0.764,1.076,0.744,1.329,0.975,0.431,0.748,0.703,��쓌,5.0,��
2019/08/25,11:50,0.763,1.075,0.744,1.326,0.975,0.431,0.749,0.706,�쓌,4.9,��
2019/08/25,12:00,0.762,1.076,0.744,1.329,0.975,0.430,0.748,0.704,�쓌,5.3,��
2019/08/25,12:10,0.763,1.078,0.744,1.327,0.976,0.431,0.749,0.704,��쓌,5.5,��
2019/08/25,12:20,0.765,1.076,0.744,1.328,0.976,0.430,0.750,0.704,�쓌,3.4,��
2019/08/25,12:30,0.764,1.077,0.744,1.326,0.976,0.430,0.749,0.706,�쓌,3.7,��
2019/08/25,12:40,0.762,1.076,0.746,1.328,0.976,0.430,0.749,0.702,�쓌,4.2,��
2019/08/25,12:50,0.763,1.078,0.744,1.328,0.977,0.430,0.748,0.704,�쓌,2.8,��
2019/08/25,13:00,0.763,1.080,0.745,1.330,0.979,0.429,0.749,0.703,�쓌,3.0,��
2019/08/25,13:10,0.765,1.078,0.743,1.329,0.980,0.430,0.748,0.703,��쓌,2.3,��
2019/08/25,13:20,0.764,1.078,0.746,1.328,0.978,0.430,0.748,0.705,��쓌,3.3,��
2019/08/25,13:30,0.765,1.078,0.744,1.331,0.979,0.430,0.750,0.704,��쓌,2.6,��
2019/08/25,13:40,0.765,1.078,0.744,1.333,0.978,0.430,0.750,0.705,�쓌,3.0,�L
2019/08/25,13:50,0.764,1.079,0.746,1.332,0.978,0.431,0.748,0.704,��쓌,3.5,�L
2019/08/25,14:00,0.765,1.079,0.745,1.334,0.977,0.431,0.749,0.705,��,4.2,��
2019/08/25,14:10,0.764,1.078,0.746,1.331,0.979,0.430,0.748,0.703,��,3.7,��
2019/08/25,14:20,0.765,1.080,0.743,1.331,0.979,0.432,0.747,0.703,��,4.9,�L
2019/08/25,14:30,0.765,1.080,0.746,1.332,0.977,0.431,0.750,0.703,��,3.9,��
2019/08/25,14:40,0.765,1.079,0.745,1.332,0.981,0.431,0.749,0.704,��쓌,4.2,��
2019/08/25,14:50,0.764,1.080,0.746,1.332,0.980,0.430,0.748,0.703,��쓌,3.2,��
2019/08/25,15:00,0.763,1.080,0.747,1.334,0.981,0.431,0.749,0.702,��쓌,5.1,��
2019/08/25,15:10,0.765,1.080,0.746,1.334,0.981,0.432,0.747,0.704,��쓌,4.3,��
2019/08/25,15:20,0.763,1.081,0.747,1.331,0.982,0.430,0.750,0.703,��,2.8,��
2019/08/25,15:30,0.765,1.079,0.744,1.333,0.981,0.430,0.750,0.703,��,2.6,��
2019/08/25,15:40,0.764,1.080,0.747,1.333,0.982,0.430,0.748,0.703,��쓌,2.5,��
2019/08/25,15:50,0.765,1.081,0.747,1.335,0.982,0.431,0.750,0.704,��쓌,3.1,��
2019/08/25,16:00,0.765,1.080,0.746,1.335,0.981,0.431,0.749,0.704,��쓌,4.7,��
2019/08/25,16:10,0.764,1.083,0.747,1.335,0.981,0.430,0.748,0.705,�쓌,5.5,��
2019/08/25,16:20,0.765,1.083,0.749,1.333,0.981,0.433,0.748,0.705,��쓌,5.7,��
2019/08/25,16:30,0.765,1.082,0.745,1.334,0.981,0.431,0.749,0.706,��쓌,4.5,��
2019/08/25,16:40,0.766,1.079,0.746,1.336,0.982,0.432,0.748,0.704,��쓌,6.2,��
2019/08/25,16:50,0.767,1.082,0.747,1.335,0.981,0.432,0.750,0.705,��쓌,6.0,��
2019/08/25,17:00,0.766,1.080,0.747,1.334,0.982,0.433,0.750,0.704,��,4.9,��
2019/08/25,17:10,0.764,1.080,0.747,1.334,0.982,0.432,0.749,0.705,��쓌,4.1,��
2019/08/25,17:20,0.766,1.081,0.745,1.332,0.980,0.432,0.749,0.704,��쓌,5.2,��
2019/08/25,17:30,0.766,1.080,0.746,1.335,0.983,0.432,0.747,0.703,��,5.7,��
2019/08/25,17:40,0.767,1.080,0.747,1.336,0.982,0.433,0.748,0.704,��,5.5,��
2019/08/25,17:50,0.766,1.082,0.748,1.333,0.982,0.432,0.748,0.703,��쐼,4.6,��
2019/08/25,18:00,0.765,1.083,0.748,1.335,0.982,0.433,0.750,0.702,��쐼,3.9,��
2019/08/25,18:10,0.765,1.081,0.750,1.335,0.983,0.433,0.748,0.706,��쐼,3.3,��
2019/08/25,18:20,0.763,1.079,0.749,1.336,0.981,0.433,0.750,0.704,��,2.9,��
2019/08/25,18:30,0.768,1.081,0.748,1.336,0.984,0.432,0.748,0.706,��쐼,2.8,��
2019/08/25,18:40,0.765,1.080,0.748,1.336,0.982,0.433,0.749,0.704,��쐼,2.0,��
2019/08/25,18:50,0.764,1.081,0.749,1.335,0.981,0.432,0.749,0.704,���쐼,3.0,��
2019/08/25,19:00,0.765,1.083,0.750,1.336,0.981,0.432,0.750,0.705,���쐼,3.2,��
2019/08/25,19:10,0.764,1.083,0.748,1.338,0.982,0.433,0.752,0.702,��,2.9,��
2019/08/25,19:20,0.766,1.082,0.748,1.334,0.982,0.434,0.749,0.705,�k��,2.8,��
2019/08/25,19:30,0.767,1.085,0.748,1.337,0.981,0.434,0.749,0.705,�k��,2.8,��
2019/08/25,19:40,0.767,1.083,0.748,1.336,0.982,0.433,0.750,0.706,�k�k��,1.7,��
2019/08/25,19:50,0.766,1.083,0.748,1.336,0.980,0.433,0.748,0.705,�k��,3.0,��
2019/08/25,20:00,0.766,1.082,0.748,1.334,0.983,0.433,0.749,0.705,�k�k��,3.4,��
2019/08/25,20:10,0.767,1.082,0.747,1.335,0.983,0.432,0.749,0.707,�k��,4.4,��
2019/08/25,20:20,0.763,1.082,0.749,1.338,0.984,0.434,0.749,0.707,�k��,4.5,��
2019/08/25,20:30,0.767,1.081,0.750,1.339,0.982,0.432,0.749,0.705,�k��,2.0,��
2019/08/25,20:40,0.765,1.081,0.748,1.335,0.983,0.430,0.749,0.704,���k��,3.5,��
2019/08/25,20:50,0.764,1.084,0.746,1.336,0.981,0.434,0.749,0.707,�k��,3.8,��
2019/08/25,21:00,0.766,1.083,0.750,1.335,0.981,0.433,0.748,0.705,�k��,2.9,��
2019/08/25,21:10,0.766,1.081,0.748,1.336,0.981,0.431,0.748,0.705,���k��,2.0,��
2019/08/25,21:20,0.766,1.080,0.749,1.335,0.983,0.433,0.749,0.705,��,2.2,��
2019/08/25,21:30,0.765,1.080,0.747,1.338,0.981,0.433,0.747,0.705,���k��,2.8,��
2019/08/25,21:40,0.767,1.079,0.748,1.337,0.981,0.433,0.747,0.703,��,3.0,��
2019/08/25,21:50,0.766,1.083,0.749,1.335,0.981,0.433,0.747,0.706,���k��,2.0,��
2019/08/25,22:00,0.765,1.082,0.748,1.338,0.981,0.433,0.748,0.706,���k��,3.2,��
2019/08/25,22:10,0.765,1.080,0.748,1.337,0.983,0.432,0.749,0.704,��,3.5,��
2019/08/25,22:20,0.765,1.081,0.749,1.337,0.982,0.431,0.748,0.705,���k��,3.4,��
2019/08/25,22:30,0.765,1.080,0.747,1.338,0.981,0.431,0.747,0.706,���k��,3.9,��
2019/08/25,22:40,0.764,1.080,0.751,1.335,0.983,0.431,0.748,0.703,���k��,4.1,��
2019/08/25,22:50,0.767,1.082,0.749,1.336,0.982,0.432,0.749,0.706,���k��,3.2,��
2019/08/25,23:00,0.765,1.081,0.749,1.337,0.982,0.432,0.747,0.706,���k��,3.7,��
2019/08/25,23:10,0.768,1.079,0.747,1.338,0.982,0.432,0.749,0.706,�k��,4.1,��
2019/08/25,23:20,0.765,1.081,0.751,1.338,0.981,0.432,0.749,0.707,���k��,4.6,��
2019/08/25,23:30,0.766,1.080,0.749,1.336,0.980,0.433,0.750,0.705,���k��,5.4,��
2019/08/25,23:40,0.766,1.079,0.749,1.337,0.981,0.433,0.749,0.705,���k��,4.6,��
2019/08/25,23:50,0.764,1.081,0.747,1.339,0.982,0.432,0.748,0.705,���k��,4.4,��
